{"data":{"norad_id":59791,"epoch":"2026-05-25T01:00:35.855424Z","epoch_age_seconds":68587,"freshness":"FRESH","line1":"1 59791U 24093K   26145.04208166  .00000395  00000+0  23867-4 0  9990","line2":"2 59791  43.0009 137.6042 0001492 284.8589  75.2097 15.27574249114374","mean_motion":15.27574249,"eccentricity":0.0001492,"inclination_deg":43.0009,"raan_deg":137.6042,"arg_perigee_deg":284.8589,"mean_anomaly_deg":75.2097,"bstar":2.3867e-5,"rev_number":11437,"period_min":94.267103608396,"perigee_km":482.04262512175,"apogee_km":484.09000819144,"semimajor_km":6861.2033166566,"source":"CELESTRAK","updated_at":"2026-05-25T13:38:19.082060Z"}}